Scottsbluff, NE

5:50 PM MST on January 21, 2018 (GMT -0700)
Heilig

Weather History for KBFF - December, 2011

Change the Weather History Date:

Wednesday, December 21, 2011

  Actual Average Record
Temperature  
Mean Temperature 27 °F 25 °F  
Max Temperature 34 °F 39 °F 64 °F (1933)
Min Temperature 20 °F 12 °F -31 °F (1989)
Degree Days  
Heating Degree Days 38 40  
Month to date heating degree days 843 813  
Since 1 July heating degree days 2212 2378  
Cooling Degree Days 0 0  
Month to date cooling degree days 0 0  
Year to date cooling degree days 932 724  
Moisture  
Dew Point 27 °F    
Average Humidity 82    
Maximum Humidity 96    
Minimum Humidity 68    
Precipitation  
Precipitation 0.12 in 0.02 in 0.29 in (1920)
Month to date precipitation 0.27 0.35  
Year to date precipitation 18.78 15.63  
Snow  
Snow 0.00 in 0.30 in 3.50 in (1920)
Month to date snowfall 1.7 4.9  
Since 1 July snowfall 7.2 13.8  
Snow Depth -    
Sea Level Pressure  
Sea Level Pressure 29.89 in    
Wind  
Wind Speed 7 mph (NNW)    
Max Wind Speed 18 mph    
Max Gust Speed 32 mph    
Visibility 4 miles    
Events Snow    
T = Trace of Precipitation, MM = Missing Value Source: NWS Daily Summary

Daily Weather History Graph

Daily Weather History Graph

Search for Another Location

Airport or City:

Trip Planner

Search our weather history database for the weather conditions in past years. The results will help you decide how hot, cold, wet, or windy it might be!

Date:

Astronomy

Dec. 21, 2011 Rise Set
Actual Time 7:18 AM MST 4:26 PM MST
Civil Twilight 6:46 AM MST 4:58 PM MST
Nautical Twilight 6:11 AM MST 5:33 PM MST
Astronomical Twilight 5:37 AM MST 6:07 PM MST
Moon 3:53 AM MST (12/21) 1:48 PM MST (12/21)
Length of Visible Light 10h 11m
Length of Day
9h 07m
Waning Crescent, 12% of the Moon is Illuminated
Dec 21
Waning Crescent
Dec 24
New
Dec 31
First Quarter
Jan 9
Full
Jan 16
Last Quarter

Hourly Weather History & Observations

Time (MST) Temp. Windchill Dew Point Humidity Pressure Visibility Wind Dir Wind Speed Gust Speed Precip Events Conditions
12:53 AM 23.0 °F 13.1 °F 16.0 °F 74% 29.80 in 10.0 mi NW 9.2 mph - N/A   Clear
1:53 AM 21.9 °F 11.7 °F 15.1 °F 75% 29.81 in 10.0 mi WNW 9.2 mph - N/A   Clear
2:53 AM 21.0 °F 12.4 °F 14.0 °F 74% 29.81 in 10.0 mi WNW 6.9 mph - N/A   Clear
3:53 AM 19.9 °F 12.1 °F 14.0 °F 78% 29.81 in 10.0 mi NW 5.8 mph - N/A   Clear
4:53 AM 19.9 °F 12.1 °F 14.0 °F 78% 29.82 in 10.0 mi NW 5.8 mph - N/A   Clear
5:53 AM 21.9 °F 11.7 °F 16.0 °F 78% 29.83 in 10.0 mi NW 9.2 mph - N/A   Clear
6:53 AM 23.0 °F 18.4 °F 16.0 °F 74% 29.87 in 10.0 mi West 3.5 mph - N/A   Overcast
7:53 AM 28.9 °F 19.2 °F 19.9 °F 69% 29.88 in 4.0 mi NW 11.5 mph - 0.00 in Snow Light Snow
7:56 AM 28.4 °F 18.5 °F 21.2 °F 74% 29.79 in 1.8 mi WNW 11.5 mph - 0.00 in Snow Light Snow
8:09 AM 28.4 °F 19.7 °F 24.8 °F 86% 29.79 in 3.0 mi WNW 9.2 mph - 0.00 in Snow Light Snow
8:24 AM 28.4 °F 21.2 °F 24.8 °F 86% 29.79 in 1.8 mi WNW 6.9 mph - 0.00 in Snow Light Snow
8:41 AM 28.4 °F 22.2 °F 24.8 °F 86% 29.80 in 1.2 mi West 5.8 mph - 0.00 in Snow Light Snow
8:53 AM 28.9 °F 22.8 °F 25.0 °F 85% 29.89 in 0.8 mi West 5.8 mph - 0.00 in Snow Light Snow
9:51 AM 30.2 °F 23.4 °F 28.4 °F 93% 29.81 in 1.0 mi West 6.9 mph - 0.03 in Snow Light Snow
9:53 AM 30.9 °F 23.5 °F 28.9 °F 92% 29.90 in 1.0 mi West 8.1 mph - 0.03 in Snow Light Snow
10:00 AM 32.0 °F 25.6 °F 28.4 °F 87% 29.81 in 1.0 mi West 6.9 mph - N/A Snow Light Snow
10:37 AM 33.8 °F 29.6 °F 30.2 °F 87% 29.81 in 1.2 mi WNW 4.6 mph - 0.01 in Snow Light Snow
10:50 AM 33.8 °F 27.0 °F 30.2 °F 87% 29.81 in 1.2 mi WNW 8.1 mph - 0.01 in Snow Light Snow
10:53 AM 33.1 °F 26.9 °F 30.9 °F 92% 29.88 in 1.2 mi WNW 6.9 mph - 0.01 in Snow Light Snow
11:20 AM 33.8 °F 27.7 °F 30.2 °F 87% 29.80 in 1.2 mi WNW 6.9 mph - N/A Snow Light Snow
11:36 AM 33.8 °F 26.4 °F 30.2 °F 87% 29.80 in 1.0 mi WNW 9.2 mph - 0.01 in Snow Light Snow
11:42 AM 33.8 °F 26.4 °F 30.2 °F 87% 29.80 in 0.8 mi WNW 9.2 mph - 0.01 in Snow Light Snow
11:49 AM 33.8 °F 26.4 °F 30.2 °F 87% 29.79 in 1.0 mi WNW 9.2 mph - 0.01 in Snow Light Snow
11:53 AM 33.1 °F 25.5 °F 30.9 °F 92% 29.87 in 1.2 mi WNW 9.2 mph - 0.01 in Snow Light Snow
12:02 PM 33.8 °F 27.0 °F 30.2 °F 87% 29.79 in 1.8 mi WNW 8.1 mph - 0.01 in Snow Light Snow
12:09 PM 33.8 °F 27.0 °F 30.2 °F 87% 29.79 in 2.0 mi WNW 8.1 mph - 0.01 in Snow Light Snow
12:24 PM 33.8 °F 27.0 °F 30.2 °F 87% 29.79 in 1.2 mi WNW 8.1 mph - 0.01 in Snow Light Snow
12:40 PM 33.8 °F 27.0 °F 32.0 °F 93% 29.78 in 1.5 mi WNW 8.1 mph - 0.01 in Snow Light Snow
12:53 PM 34.0 °F 26.6 °F 32.0 °F 92% 29.86 in 1.8 mi WNW 9.2 mph - 0.01 in Snow Light Snow
1:03 PM 33.8 °F 26.4 °F 32.0 °F 93% 29.78 in 2.5 mi NW 9.2 mph - 0.00 in Snow Light Snow
1:08 PM 33.8 °F 27.7 °F 32.0 °F 93% 29.79 in 3.0 mi NW 6.9 mph - 0.00 in Snow Light Snow
1:35 PM 33.8 °F 27.7 °F 32.0 °F 93% 29.79 in 4.0 mi WNW 6.9 mph - 0.00 in   Overcast
1:53 PM 34.0 °F 28.8 °F 32.0 °F 92% 29.88 in 3.0 mi NW 5.8 mph - 0.00 in Snow Light Snow
2:05 PM 33.8 °F 27.7 °F 32.0 °F 93% 29.80 in 2.5 mi NW 6.9 mph - 0.00 in Snow Light Snow
2:13 PM 33.8 °F 28.6 °F 32.0 °F 93% 29.80 in 1.0 mi NW 5.8 mph - 0.01 in Snow Light Snow
2:24 PM 33.8 °F 30.8 °F 32.0 °F 93% 29.81 in 0.8 mi NW 3.5 mph - 0.01 in Snow Light Snow
2:26 PM 33.8 °F - 32.0 °F 93% 29.81 in 1.0 mi Calm Calm - 0.01 in Snow Light Snow
2:39 PM 33.8 °F 28.6 °F 32.0 °F 93% 29.81 in 1.0 mi North 5.8 mph - 0.02 in Snow Light Snow
2:47 PM 33.8 °F 27.7 °F 30.2 °F 87% 29.82 in 1.2 mi North 6.9 mph - 0.02 in Snow Light Snow
2:53 PM 33.1 °F 27.7 °F 30.9 °F 92% 29.91 in 1.2 mi North 5.8 mph - 0.02 in Snow Light Snow
3:17 PM 33.8 °F 28.6 °F 30.2 °F 87% 29.84 in 1.0 mi North 5.8 mph - 0.01 in Snow Light Snow
3:53 PM 33.1 °F 28.7 °F 30.9 °F 92% 29.95 in 1.2 mi NNE 4.6 mph - 0.01 in Snow Light Snow
4:28 PM 32.0 °F 28.7 °F 30.2 °F 93% 29.88 in 0.8 mi North 3.5 mph - 0.01 in Snow Light Snow
4:43 PM 32.0 °F 28.7 °F 30.2 °F 93% 29.89 in 1.2 mi North 3.5 mph - 0.02 in Snow Light Snow
4:53 PM 32.0 °F 26.4 °F 30.9 °F 96% 30.00 in 1.5 mi North 5.8 mph - 0.02 in Snow Light Snow
5:31 PM 32.0 °F 25.6 °F 28.4 °F 87% 29.92 in 2.5 mi NNE 6.9 mph - 0.01 in Snow Light Snow
5:38 PM 32.0 °F 25.6 °F 28.4 °F 87% 29.92 in 3.0 mi NNE 6.9 mph - 0.01 in Snow Light Snow
5:53 PM 30.9 °F 26.2 °F 28.9 °F 92% 30.03 in 6.0 mi North 4.6 mph - 0.01 in   Overcast
6:53 PM 30.9 °F 23.5 °F 28.0 °F 89% 30.08 in 5.0 mi NNE 8.1 mph - 0.00 in   Overcast
7:53 PM 30.9 °F 23.5 °F 28.0 °F 89% 30.09 in 6.0 mi NNE 8.1 mph - N/A   Overcast
8:53 PM 28.9 °F 20.4 °F 26.1 °F 89% 30.13 in 10.0 mi NE 9.2 mph - N/A   Overcast
9:10 PM 30.2 °F 21.3 °F 26.6 °F 86% 30.06 in 10.0 mi NE 10.4 mph - N/A   Overcast
9:20 PM 30.2 °F 21.3 °F 24.8 °F 80% 30.07 in 10.0 mi NE 10.4 mph - N/A   Overcast
9:53 PM 28.9 °F 20.4 °F 25.0 °F 85% 30.16 in 10.0 mi NE 9.2 mph - N/A   Overcast
10:04 PM 28.4 °F 19.1 °F 24.8 °F 86% 30.09 in 10.0 mi NE 10.4 mph 18.4 mph N/A   Overcast
10:18 PM 28.4 °F 20.4 °F 24.8 °F 86% 30.11 in 10.0 mi NNE 8.1 mph - N/A   Overcast
10:53 PM 28.9 °F 21.1 °F 25.0 °F 85% 30.21 in 10.0 mi NE 8.1 mph - N/A   Overcast
11:50 PM 28.4 °F 21.2 °F 24.8 °F 86% 30.15 in 7.0 mi NNE 6.9 mph - 0.00 in Snow Light Snow
11:53 PM 28.9 °F 22.8 °F 25.0 °F 85% 30.23 in 5.0 mi North 5.8 mph - 0.00 in Snow Light Snow